sat.trackr.live / text

‹ back to catalog

KUIPER-00095

NORAD 65134 · 2025-171C

PAYLOAD ACTIVE UNKNOWN

§ Identity

Operator
Country
US
Launch date
2025-08-11
Launch site
AFETR
Launch vehicle
Mass (kg)
RCS (m²)

External: N2YO · Heavens-Above · Gunter

§ Orbital elements

Epoch: 2026-05-25T00:48:05.469696Z

Period
97.30 min
Inclination
51.8960°
Eccentricity
0.0000461
Mean motion
14.79937443 rev/d
Perigee alt
629.2 km
Apogee alt
629.8 km
Semi-major
7,007.7 km
B*
2.7857e-4
RAAN
168.0419°
Arg perigee
78.4843°
Mean anomaly
281.6171°
Rev number
4,437

§ Raw data

KUIPER-000951 65134U 25171C   26145.03339664  .00001903  00000+0  27857-3 0  99912 65134  51.8960 168.0419 0000461  78.4843 281.6171 14.79937443 44379

JSON: /api/v1/satellites/65134 · /tle

For live sub-satellite position, see the globe view (requires WebGL).

§ Visibility from observer

Set your observer location to see the next 7 days of passes ≥ 10°. The values pass through the URL so the page stays shareable.

No JS? Fill the form by hand. The geolocation button needs JavaScript.